EW0608 Weather Reports


time (UTC)temp
F
wind
direction
speed
knots
gust
knots
rain 1hr
in
rain 24hr
in
rain mn
in
humidity
%
barometer
mb
20260510020401 53 282 0.0 0.0 0.00 0.00 0.00 88 1009.8
20260510020051 53 282 0.0 0.0 0.00 0.00 0.00 88 1009.4
20260510015850 53 282 0.0 0.0 0.00 0.00 0.00 88 1009.6
20260510015341 54 282 0.0 0.0 0.00 0.00 0.00 88 1009.6
20260510014834 54 282 0.0 0.0 0.00 0.00 0.00 88 1009.6
20260510014509 54 282 0.0 0.0 0.00 0.00 0.00 87 1009.2
20260510014409 54 282 0.0 0.0 0.00 0.00 0.00 87 1009.4
20260510013840 54 282 0.0 0.0 0.00 0.00 0.00 86 1009.3
20260510013354 55 282 0.0 0.0 0.00 0.00 0.00 86 1009.1
20260510013007 54 282 0.0 0.0 0.00 0.00 0.00 85 1008.9
20260510012846 55 282 0.0 0.0 0.00 0.00 0.00 85 1009.1
20260510012338 55 282 0.0 0.0 0.00 0.00 0.00 85 1009.0
20260510011851 55 282 0.0 0.0 0.00 0.00 0.00 84 1008.9
20260510011552 55 282 0.0 0.0 0.00 0.00 0.00 84 1008.6
20260510011344 56 282 0.0 0.0 0.00 0.00 0.00 83 1008.8
20260510010856 56 282 0.0 0.0 0.00 0.00 0.00 83 1008.7
20260510010350 56 282 0.0 1.7 0.00 0.00 0.00 82 1008.6
20260510010050 56 282 0.0 1.7 0.00 0.00 0.00 81 1008.3
20260510005843 57 282 0.9 1.7 0.00 0.00 0.00 81 1008.5
20260510005354 57 282 284.2 284.2 0.00 0.00 0.00 81 1008.2
20260510004908 57 282 0.0 1.7 0.00 0.00 0.00 80 1008.3
20260510004539 57 282 0.0 1.7 0.00 0.00 0.00 79 1008.0
20260510004339 58 282 0.9 1.7 0.00 0.00 0.00 79 1008.2
20260510003851 58 282 0.0 0.0 0.00 0.00 0.00 78 1008.2
20260510003344 58 282 0.0 0.0 0.00 0.00 0.00 78 1008.1
20260510003037 58 282 0.0 0.0 0.00 0.00 0.00 77 1007.8
20260510002837 58 282 0.0 0.0 0.00 0.00 0.00 77 1008.0
20260510002348 59 282 0.0 0.0 0.00 0.00 0.00 76 1007.9
20260510001841 59 282 0.0 0.0 0.00 0.00 0.00 75 1008.0
20260510001556 59 282 0.0 0.0 0.00 0.00 0.00 74 1007.7
20260510001353 60 282 0.0 0.0 0.00 0.00 0.00 75 1007.9
20260510000847 60 282 0.0 0.0 0.00 0.00 0.00 73 1007.7
20260510000341 61 282 0.0 0.0 0.00 0.00 0.00 72 1007.7
20260510000030 60 282 0.0 0.0 0.00 0.00 0.00 72 1007.3
20260509235929 61 282 0.0 0.0 0.00 0.00 0.00 71 1007.7
20260509235337 61 282 0.0 0.0 0.00 0.00 0.00 72 1007.6
20260509234850 62 282 0.0 0.0 0.00 0.00 0.00 71 1007.6
20260509234547 62 282 0.0 0.0 0.00 0.00 0.00 69 1007.3
20260509234343 63 282 0.0 0.0 0.00 0.00 0.00 68 1007.6
20260509233915 63 282 0.0 0.0 0.00 0.00 0.00 68 1007.7
20260509233407 63 282 0.0 0.0 0.00 0.00 0.00 67 1007.7
20260509233039 63 282 0.0 0.0 0.00 0.00 0.00 68 1007.4
20260509232839 63 282 0.0 0.0 0.00 0.00 0.00 67 1007.7
20260509232351 64 282 0.0 0.0 0.00 0.00 0.00 66 1007.7
20260509231903 65 282 0.0 0.9 0.00 0.00 0.00 65 1007.7
20260509231556 65 282 0.0 1.7 0.00 0.00 0.00 64 1007.3
20260509231355 65 282 0.0 1.7 0.00 0.00 0.00 65 1007.6
20260509230846 66 282 0.9 1.7 0.00 0.00 0.00 63 1007.6
20260509230418 66 282 0.0 0.0 0.00 0.00 0.00 62 1007.7
20260509230047 66 282 0.0 0.0 0.00 0.00 0.00 62 1007.4
20260509225846 67 282 0.0 1.7 0.00 0.00 0.00 60 1007.7
20260509225339 67 282 0.0 1.7 0.00 0.00 0.00 58 1007.7
20260509224912 68 282 0.9 1.7 0.00 0.00 0.00 57 1007.8
20260509224545 67 282 0.0 1.7 0.00 0.00 0.00 55 1007.5
20260509224343 68 282 0.9 1.7 0.00 0.00 0.00 56 1007.9
20260509223856 69 175 0.0 1.7 0.00 0.00 0.00 58 1007.9
20260509223347 69 175 0.0 1.7 0.00 0.00 0.00 55 1007.9
20260509223041 69 175 0.9 1.7 0.00 0.00 0.00 54 1007.6
20260509222841 69 175 0.0 1.7 0.00 0.00 0.00 54 1007.9
20260509222433 69 175 0.9 1.7 0.00 0.00 0.00 55 1007.9
20260509221901 69 175 0.0 1.7 0.00 0.00 0.00 57 1007.8
20260509221552 68 175 0.0 1.7 0.00 0.00 0.00 57 1007.5
20260509221351 69 175 0.9 1.7 0.00 0.00 0.00 56 1007.9
20260509220844 69 316 0.9 2.6 0.00 0.00 0.00 58 1007.9
20260509220358 69 63 0.9 2.6 0.00 0.00 0.00 57 1007.9
20260509220047 68 349 1.7 2.6 0.00 0.00 0.00 57 1007.6
20260509215847 69 279 1.7 2.6 0.00 0.00 0.00 59 1007.9
20260509215441 69 81 0.9 3.5 0.00 0.00 0.00 57 1007.9
20260509214847 68 307 0.9 2.6 0.00 0.00 0.00 57 1007.9
20260509214542 68 306 0.9 2.6 0.00 0.00 0.00 58 1007.6
20260509214340 69 306 1.7 2.6 0.00 0.00 0.00 58 1007.9
20260509213851 69 63 0.9 4.3 0.00 0.00 0.00 56 1007.9
20260509213344 69 98 1.7 4.3 0.00 0.00 0.00 58 1007.9
20260509213037 68 63 0.9 2.6 0.00 0.00 0.00 57 1007.6
20260509212836 69 131 0.9 2.6 0.00 0.00 0.00 57 1007.9
20260509212348 69 46 0.9 3.5 0.00 0.00 0.00 58 1007.9
20260509211901 68 46 1.7 3.5 0.00 0.00 0.00 60 1007.9
20260509211555 68 200 0.0 1.7 0.00 0.00 0.00 59 1007.6
20260509211352 68 200 0.9 1.7 0.00 0.00 0.00 60 1007.9
20260509210849 67 310 0.9 2.6 0.00 0.00 0.00 61 1008.0
20260509210344 68 310 0.9 3.5 0.00 0.00 0.00 59 1007.9
20260509210053 67 310 0.9 3.5 0.00 0.00 0.00 59 1007.6
20260509205854 68 51 0.9 3.5 0.00 0.00 0.00 59 1007.9
20260509205407 68 38 0.0 2.6 0.00 0.00 0.00 61 1007.9
20260509204840 68 46 1.7 2.6 0.00 0.00 0.00 61 1007.9
20260509204530 67 37 0.9 2.6 0.00 0.00 0.00 62 1007.6
20260509203855 68 50 0.9 2.6 0.00 0.00 0.00 61 1007.9
20260509203347 67 5 0.9 2.6 0.00 0.00 0.00 61 1007.9
20260509203102 66 5 0.9 2.6 0.00 0.00 0.00 61 1007.6
20260509202840 67 5 1.7 3.5 0.00 0.00 0.00 60 1008.0
20260509202412 67 27 0.9 3.5 0.00 0.00 0.00 62 1008.0
20260509201844 67 19 0.9 2.6 0.00 0.00 0.00 59 1008.0
20260509201538 67 19 0.0 1.7 0.00 0.00 0.00 60 1007.6
20260509201337 68 110 0.9 1.7 0.00 0.00 0.00 60 1007.9
20260509200848 68 103 0.0 1.7 0.00 0.00 0.00 60 1007.9
20260509200343 68 103 0.9 1.7 0.00 0.00 0.00 55 1007.8
20260509200100 67 103 0.0 1.7 0.00 0.00 0.00 56 1007.5
20260509195852 68 103 0.0 1.7 0.00 0.02 0.00 57 1007.9
20260509195344 67 103 0.0 1.7 0.00 0.02 0.00 57 1007.9
20260509194856 67 103 0.9 1.7 0.00 0.02 0.00 56 1007.9
20260509194547 66 103 0.0 0.9 0.00 0.02 0.00 62 1007.6
20260509194346 67 103 0.0 0.9 0.00 0.02 0.00 60 1007.9
20260509193839 68 103 0.0 0.9 0.00 0.02 0.00 56 1007.9
20260509193121 68 103 0.0 2.6 0.00 0.02 0.00 57 1007.8
20260509192854 68 103 0.9 2.6 0.00 0.02 0.00 56 1008.1
20260509192347 69 54 0.9 2.6 0.00 0.02 0.00 54 1008.0
20260509191843 69 5 1.7 3.5 0.00 0.02 0.00 53 1008.0
20260509191539 69 63 0.9 3.5 0.00 0.02 0.00 54 1007.8
20260509191336 70 17 1.7 3.5 0.00 0.02 0.00 51 1008.0
20260509190849 71 351 0.9 0.0 0.00 0.00 0.00 53 1007.7
20260509190419 69 198 0.9 3.5 0.00 0.02 0.00 57 1008.0
20260509190009 68 197 0.0 4.3 0.00 0.02 0.00 53 1007.8
20260509185908 69 113 0.9 4.3 0.00 0.07 0.00 54 1008.2
20260509185339 68 131 1.7 3.5 0.00 0.07 0.00 56 1008.1
20260509184852 68 131 0.9 4.3 0.00 0.07 0.00 58 1008.2
20260509184546 67 178 0.9 4.3 0.00 0.07 0.00 55 1007.9
20260509184345 68 304 0.9 4.3 0.00 0.07 0.00 57 1008.3
20260509183856 67 167 1.7 5.2 0.00 0.07 0.00 60 1008.3
20260509183349 67 207 0.9 2.6 0.00 0.07 0.00 62 1008.4
20260509183058 65 82 0.0 3.5 0.00 0.07 0.00 61 1008.1
20260509182957 66 82 0.9 3.5 0.00 0.07 0.00 61 1008.4
20260509182348 65 77 1.7 5.2 0.00 0.07 0.00 61 1008.5
20260509181900 65 200 1.7 5.2 0.00 0.07 0.00 61 1008.6
20260509181559 65 161 1.7 5.2 0.00 0.07 0.00 60 1008.3
20260509181351 65 314 0.9 2.6 0.00 0.07 0.00 59 1008.6
20260509180843 64 134 0.9 2.6 0.00 0.07 0.00 60 1008.6
20260509180354 64 302 1.7 4.3 0.00 0.07 0.00 62 1008.6
20260509180043 64 156 0.9 4.3 0.00 0.07 0.00 61 1008.4
20260509175843 64 161 2.6 4.3 0.00 0.15 0.00 60 1008.7
20260509175357 65 153 1.7 5.2 0.00 0.15 0.00 61 1008.8
20260509174849 65 209 1.7 5.2 0.00 0.15 0.00 64 1008.9
20260509174542 64 296 0.0 2.6 0.00 0.15 0.00 67 1008.6
20260509174340 64 296 0.9 2.6 0.00 0.15 0.00 67 1008.9
20260509173852 64 263 1.7 4.3 0.00 0.15 0.00 69 1009.1
20260509173344 63 187 1.7 4.3 0.00 0.15 0.00 67 1009.0
20260509173038 63 206 0.9 3.5 0.00 0.15 0.00 68 1008.8
20260509172838 64 56 0.9 2.6 0.00 0.15 0.00 70 1009.1
20260509172350 63 96 0.0 2.6 0.00 0.15 0.00 71 1009.2
20260509171842 61 81 0.9 1.7 0.00 0.15 0.00 74 1009.2
20260509171555 60 81 0.0 0.9 0.00 0.15 0.00 79 1009.0
20260509171354 60 81 0.0 0.9 0.00 0.15 0.00 78 1009.4
20260509170847 60 81 0.0 1.7 0.00 0.15 0.00 75 1009.6
20260509170358 60 81 0.0 1.7 0.00 0.15 0.00 77 1009.6
20260509170056 59 81 0.0 1.7 0.00 0.15 0.00 78 1009.4
20260509165849 60 81 0.0 1.7 0.00 0.21 0.00 80 1009.7
20260509165340 60 81 0.0 1.7 0.00 0.21 0.00 80 1009.7
20260509164853 60 81 0.0 2.6 0.00 0.21 0.00 82 1009.8
20260509164554 59 81 0.0 2.6 0.00 0.21 0.00 82 1009.6
20260509163840 60 162 0.0 1.7 0.00 0.21 0.00 84 1010.0
20260509163045 58 65 0.0 0.0 0.00 0.21 0.00 84 1010.0
20260509162844 58 65 0.0 0.0 0.00 0.21 0.00 84 1010.3
20260509162355 59 65 0.0 0.0 0.00 0.21 0.00 84 1010.3
20260509161848 59 65 0.0 1.7 0.00 0.21 0.00 82 1010.2
20260509161554 58 65 0.0 1.7 0.00 0.21 0.00 82 1009.9
20260509161344 59 65 0.0 1.7 0.00 0.21 0.00 82 1010.2
20260509160856 59 65 0.0 0.9 0.00 0.21 0.00 84 1010.3
20260509160349 59 65 0.0 1.7 0.00 0.21 0.00 85 1010.3
20260509160040 58 65 0.0 2.6 0.00 0.21 0.00 84 1010.0
20260509155838 58 53 0.0 2.6 0.00 0.30 0.00 84 1010.2
20260509155351 58 53 0.0 1.7 0.00 0.30 0.00 85 1010.2
20260509154842 58 209 0.0 0.0 0.00 0.30 0.00 84 1010.2
20260509154356 58 209 0.0 0.0 0.00 0.30 0.00 85 1010.3
20260509153847 58 209 0.0 0.0 0.00 0.30 0.00 85 1010.4
20260509153341 57 209 0.0 0.0 0.00 0.30 0.00 87 1010.4
20260509153054 57 209 0.0 0.0 0.00 0.30 0.00 87 1010.1
20260509152853 57 209 0.0 0.0 0.00 0.30 0.00 86 1010.4
20260509152404 57 209 0.0 0.0 0.00 0.30 0.00 85 1010.4
20260509151548 57 209 0.0 0.0 0.00 0.30 0.00 88 1010.0
20260509151347 57 209 0.0 0.0 0.00 0.30 0.00 87 1010.2
20260509150840 56 209 0.0 0.0 0.00 0.30 0.00 87 1010.4
20260509150414 56 209 0.0 0.0 0.00 0.30 0.00 88 1010.4
20260509150004 56 209 0.0 0.0 0.00 0.30 0.00 90 1010.2
20260509145903 56 209 0.0 0.0 0.00 0.42 0.00 90 1010.5
20260509145355 55 209 0.0 0.0 0.00 0.42 0.00 91 1010.6
20260509144847 55 209 0.0 0.0 0.00 0.42 0.00 92 1010.3
20260509144541 55 209 0.0 0.0 0.00 0.42 0.00 92 1010.1
20260509144339 55 209 0.0 0.0 0.00 0.42 0.00 91 1010.4
20260509143849 56 209 0.0 0.0 0.00 0.42 0.00 93 1010.3
20260509143342 55 209 0.0 0.0 0.00 0.42 0.00 93 1010.3
20260509143017 54 209 0.0 0.0 0.00 0.42 0.00 93 1010.1
20260509142916 54 209 0.0 0.0 0.00 0.42 0.00 93 1010.4
20260509142346 54 209 0.0 0.0 0.00 0.42 0.00 94 1010.6
20260509141839 53 209 0.0 0.0 0.00 0.42 0.00 94 1010.7
20260509141511 52 209 0.0 0.0 0.00 0.42 0.00 95 1010.5
20260509141411 52 209 0.0 0.0 0.00 0.42 0.00 95 1010.7
20260509140844 52 209 0.0 0.0 0.00 0.42 0.00 95 1010.8
20260509140029 52 208 0.0 0.0 0.00 0.42 0.00 96 1010.5
20260509134529 51 208 0.0 0.0 0.00 0.47 0.00 96 1010.3
20260509133028 51 208 0.0 0.0 0.00 0.47 0.00 96 1010.3
20260509131527 51 208 0.0 0.0 0.00 0.47 0.00 96 1010.1
20260509130047 50 208 0.0 0.0 0.00 0.47 0.00 96 1010.4
20260509124529 50 208 0.0 0.0 0.00 0.47 0.00 96 1010.5
20260509123025 50 68 1.7 2.6 0.00 0.47 0.00 95 1010.3
20260509121528 50 305 0.0 1.7 0.00 0.47 0.00 95 1010.4
20260509120030 50 88 0.0 0.0 0.00 0.47 0.00 94 1010.6
20260509114521 50 174 0.0 0.9 0.00 0.47 0.00 91 1010.6
20260509113018 51 72 0.0 0.0 0.00 0.47 0.00 88 1010.4
20260509111518 50 72 0.0 0.0 0.00 0.47 0.00 85 1010.2
20260509110020 50 72 0.0 0.0 0.00 0.47 0.00 85 1010.2
20260509104516 50 72 0.0 0.0 0.00 0.47 0.00 84 1010.1
20260509103018 50 72 0.0 0.0 0.00 0.47 0.00 84 1009.7
20260509101515 50 72 0.0 1.7 0.00 0.47 0.00 84 1009.6
20260509100020 50 72 0.0 0.0 0.00 0.47 0.00 85 1009.6
20260509094514 50 72 0.0 0.0 0.00 0.47 0.00 85 1009.7
20260509093014 50 72 0.0 1.7 0.00 0.47 0.00 86 1009.7
20260509091513 50 132 0.0 0.9 0.00 0.47 0.00 85 1009.6
20260509090013 50 132 0.0 0.0 0.00 0.47 0.00 85 1009.4
20260509084525 50 132 0.0 0.0 0.00 0.47 0.00 86 1009.4
20260509083020 50 132 0.0 0.0 0.00 0.47 0.00 86 1009.6
20260509081513 50 132 0.0 0.9 0.00 0.47 0.00 85 1009.5
20260509080008 50 132 0.0 0.0 0.00 0.47 0.00 85 1009.6
20260509074510 50 132 0.0 0.0 0.00 0.47 0.00 85 1009.7
20260509073006 50 132 0.0 0.0 0.00 0.47 0.00 84 1009.8
20260509071504 51 132 0.0 0.0 0.00 0.47 0.00 84 1009.8
20260509070004 51 132 0.0 0.0 0.00 0.47 0.00 83 1009.8
20260509064503 51 132 0.0 0.0 0.00 0.47 0.00 83 1009.9
20260509063001 51 132 0.0 0.0 0.00 0.47 0.00 81 1009.9
20260509061615 51 132 0.0 0.0 0.00 0.47 0.00 82 1010.2
20260509060131 51 132 0.0 0.0 0.00 0.47 0.00 82 1010.3
20260509054601 52 132 0.0 0.0 0.00 0.47 0.00 81 1010.4
20260509054355 52 132 0.0 0.0 0.00 0.00 0.00 81 1010.3
20260509053846 52 132 0.0 0.0 0.00 0.47 0.00 80 1010.5
20260509053339 52 132 0.0 0.9 0.00 0.47 0.00 80 1010.5
20260509053052 52 132 0.0 1.7 0.00 0.47 0.00 80 1010.5
20260509052851 52 132 0.0 1.7 0.00 0.47 0.00 79 1010.6
20260509052344 53 132 0.9 1.7 0.00 0.47 0.00 80 1010.7
20260509051855 52 132 0.0 0.0 0.00 0.47 0.00 80 1010.5
20260509051508 52 132 0.0 0.0 0.00 0.47 0.00 80 1010.5
20260509051407 52 132 0.0 0.0 0.00 0.47 0.00 80 1010.6
20260509050838 53 132 0.0 0.0 0.00 0.47 0.00 79 1010.6
20260509050352 53 132 0.0 0.0 0.00 0.47 0.00 80 1010.6
20260509050058 52 132 0.0 0.0 0.00 0.47 0.00 80 1010.5
20260509045840 53 132 0.0 0.0 0.00 0.47 0.00 80 1010.6
20260509045353 53 132 0.0 0.0 0.00 0.47 0.00 79 1010.6
20260509044844 53 132 0.0 0.0 0.00 0.47 0.00 78 1010.5
20260509044552 52 132 0.0 0.0 0.00 0.47 0.00 78 1010.4
20260509044337 53 132 0.0 0.0 0.00 0.47 0.00 78 1010.5
20260509043850 53 132 0.0 0.0 0.00 0.47 0.00 78 1010.5
20260509043347 53 132 0.0 0.0 0.00 0.47 0.00 78 1010.6
20260509043040 53 132 0.0 0.0 0.00 0.47 0.00 78 1010.5
20260509042839 53 132 0.0 0.0 0.00 0.47 0.00 78 1010.6
20260509042412 53 132 0.0 0.9 0.00 0.47 0.00 78 1010.6
20260509041543 53 132 0.0 0.9 0.00 0.47 0.00 77 1010.5
20260509041342 53 132 0.0 0.9 0.00 0.47 0.00 77 1010.6
20260509040838 53 132 0.0 0.0 0.00 0.47 0.00 78 1010.7
20260509040352 53 132 0.0 0.0 0.00 0.47 0.00 77 1010.6
20260509040043 53 132 0.0 0.9 0.00 0.47 0.00 77 1010.5
20260509035842 54 132 0.0 0.9 0.00 0.47 0.47 76 1010.7
20260509035415 54 132 0.0 2.6 0.00 0.47 0.47 76 1010.6
20260509034845 54 132 1.7 2.6 0.00 0.47 0.47 76 1010.6
20260509034542 53 132 0.9 2.6 0.00 0.47 0.47 77 1010.4
20260509034339 54 132 0.9 2.6 0.00 0.47 0.47 76 1010.5
20260509033851 54 131 0.9 1.7 0.00 0.47 0.47 75 1010.5
20260509033343 54 77 0.0 0.9 0.00 0.47 0.47 75 1010.4
20260509033056 54 77 0.0 0.9 0.00 0.47 0.47 74 1010.2
20260509032855 54 77 0.0 0.9 0.00 0.47 0.47 73 1010.2
20260509032406 54 77 0.0 0.9 0.00 0.47 0.47 73 1010.4
20260509031837 55 77 0.9 1.7 0.00 0.47 0.47 74 1010.5
20260509031550 54 77 0.0 1.7 0.00 0.47 0.47 73 1010.5
20260509031349 55 77 0.0 1.7 0.00 0.47 0.47 73 1010.5
20260509030921 55 77 0.9 2.6 0.00 0.47 0.47 73 1010.5
20260509030348 55 77 0.9 2.6 0.00 0.47 0.47 74 1010.6
20260509030043 55 77 0.9 2.6 0.00 0.47 0.47 73 1010.5
20260509025838 56 77 1.7 3.5 0.00 0.47 0.47 71 1010.5
20260509025349 55 344 1.7 3.5 0.00 0.47 0.47 71 1010.8
20260509024900 56 51 1.7 2.6 0.00 0.47 0.47 73 1010.7
20260509024552 55 97 0.0 2.6 0.00 0.47 0.47 73 1010.7
20260509024351 56 223 0.0 1.7 0.00 0.47 0.47 72 1011.0
20260509023843 56 228 0.9 1.7 0.00 0.47 0.47 71 1011.1
20260509023355 56 179 0.0 0.0 0.00 0.47 0.47 71 1011.0
20260509023012 55 179 0.0 0.0 0.00 0.47 0.47 70 1011.0
20260509022907 56 179 0.0 1.7 0.00 0.47 0.47 70 1011.1
20260509022358 56 179 0.0 1.7 0.00 0.47 0.47 68 1011.1
20260509021849 55 63 0.0 3.5 0.00 0.47 0.47 66 1011.0
20260509021542 55 63 0.0 3.5 0.00 0.47 0.47 67 1010.8
20260509021341 56 308 1.7 3.5 0.00 0.47 0.47 66 1010.7
20260509020913 56 59 0.0 0.9 0.00 0.47 0.47 67 1010.7